STARLINK-34816, 65467

Orbit data source: Space-Track

STARLINK-34816, 65467 is a payload satellite owned by SpaceX/Seattle (US) in LEO that was launched on Wed, 03 Sep 2025 UTC via an FALCON 9 launch vehicle from the Air Force Eastern Test Range (AFETR). Payload-class satellites include a variety of spacecraft equipped with specific instruments for various scientific and technological missions. These include communications satellites like Starlink; space stations such as the ISS; scientific satellites like the Hubble; Earth observation satellites from companies like Planet Labs, Umbra, and HawkEye 360; GPS; miniature CubeSats for education and research; and military/defense satellites.

Loading next visibility...
Identifier
65467, 2025-195K
Orbit
LEO
Country
Flag of USUS
Related business
Manufacturer
SpaceX/Seattle
Mission
Operational Commercial Communications
Bus & Motor
STARLINK V2MO, Unknown motor
Mass
575 kg wet, ~530 kg dry
Launch date (UTC)
2025-09-03 (10 months ago)
Launch vehicle
FALCON 9
Launch site
Air Force Eastern Test Range (AFETR)
Object type
Payload
Rocket body
Debris
Shape & HBR
Box + 2 Pan, 17.7 m
Radar Cross Section
36.964 m², Large (>1 m²)

Expand to show TLE details & history
Last TLE update: 13 hours ago

TLE from 13 hours ago
0 STARLINK-34816
1 65467U 25195K   26171.32879116  .00014710  00000-0  50756-3 0  9993
2 65467  53.1584 141.7549 0001078  89.0122 271.1002 15.30214769 45702
Epoch: 2026-06-20T07:53Z
TLE epoch observation values (Epoch: 2026-06-20T07:53:27.556Z)
Latitude
-0.00003°
Longitude
114.84508°
Altitude
476.056 km
Speed
7.629 km/s
True Right ascension
09h 27m 01s
True Declination
0° 00' 00"
Sunlit
Object was in daylight at epoch
Visualization orbit readout
Latitude
Unknown
Longitude
Unknown
Altitude
Unknown
Speed
Unknown
Apparent Right ascension
Unknown
Apparent Declination
Unknown
Sunlit
N/A
Visualization observer readout
Local Sidereal Time
07:20:47
Azimuth
Unknown
Elevation
Unknown
Doppler factor
Unknown
Orbital elements
Apogee altitude
476.166 km
Perigee altitude
474.689 km
Semi-major axis
6,853.565 km
Eccentricity
0.00011
Inclination
53.1584°
RAAN
141.7549°
Arg. of periapsis
89.0122°
True anomaly
271.08785°
Mean anomaly
271.1002°
Eccentric anomaly
271.09402°
Mean motion
3.82533 °/min
Orbital period
94.11 mins
BSTAR
0.00050756
Loading maneuver chart data...
Computing Atmospheric mass density...
Loading historical data...
Loading historical data...
Loading historical data...
Loading historical data...
Loading historical data...
Loading historical data...
Loading historical data...

Documentation

Showing up to 5 results
|